{"data":{"norad_id":50842,"intl_designator":"2022-001AR","name":"STARLINK-3302","alt_names":[],"object_type":"PAYLOAD","status":"ACTIVE","operator":null,"country":"US","launch_date":"2022-01-06","launch_site_code":"AFETR","launch_vehicle":null,"mission":null,"orbit_class":"UNKNOWN","rcs_meters":null,"size_class":null,"mass_kg":null,"dimensions":null,"purposes":["comms"],"wikipedia_slug":null,"has_3d_model":false,"image_url":null,"decayed_at":null,"tle_current":{"epoch":"2026-05-24T20:27:04.021632Z","epoch_age_seconds":101999,"freshness":"FRESH","line1":"1 50842U 22001AR  26144.85212988 -.00000009  00000+0  17514-4 0  9995","line2":"2 50842  53.2132 197.2147 0001040  81.0620 279.0490 15.08835568241759","mean_motion":15.08835568,"eccentricity":0.000104,"inclination_deg":53.2132,"raan_deg":197.2147,"arg_perigee_deg":81.062,"mean_anomaly_deg":279.049,"bstar":1.7514e-5,"rev_number":24175,"period_min":95.437835012649,"perigee_km":539.03747487889,"apogee_km":540.47639681754,"semimajor_km":6917.8939358482,"source":"CELESTRAK","updated_at":"2026-05-25T13:38:16.881942Z"}}}